Location: North Runcton
(52.7000°N, 0.4333°E)
Time: 00:29:23
(UTC+00:00)

USA 234 - Pass Details

Date: 19 May 2025
Orbit: 1097 x 1111 km, 123.0° (Epoch: 13 June)

Event Time Altitude Azimuth Distance (km) Brightness Sun altitude
Rises 20:48:26 0° 59° (ENE) 3,926 6.0 -6.9°
Reaches altitude 10° 20:51:02 10° 65° (ENE) 2,968 5.4 -7.1°
Maximum altitude 20:57:21 49° 139° (SE) 1,403 3.5 -7.8°
Drops below altitude 10° 21:03:39 10° 213° (SSW) 2,965 5.4 -8.4°
Sets 21:06:15 0° 219° (SW) 3,922 6.0 -8.7°
